[[{"header":{"parameterUnit":"m.s-1","parameterCategory":1,"la1":30.2991,"la2":30.254,"lo1":-89.0895,"lo2":-89.0444,"dy":0.0017,"dx":0.0017,"nx":28,"ny":28,"refTime":"2024-02-04T03:00:00:Z","depth":0,"parameterNumber":2,"parameterNumberName":"U-component_of_WINDS"},"data":[0,0,0,0,0,0,0,0,0,0,0,0,0,0,0,0,0,0,0,0,0,0,0,0,0,0,0,0,0,0,0,0,0,0,0,0,0,0,0,0,0,0,0,0,0,0,0,0,0,0,0,0,0,0,0,0,0,0,-9.2949,-9.2953,0,-9.3285,-9.3288,-9.3292,-9.3411,-9.341,-9.3409,-9.3408,-9.3719,-9.3728,-9.3738,0,0,0,0,0,0,0,0,0,0,0,0,0,-9.2383,-9.2392,-9.2949,-9.2953,-9.2958,-9.3284,-9.3288,-9.3293,-9.3411,-9.341,-9.3409,-9.3407,-9.3716,-9.3727,-9.3739,0,0,0,0,0,0,0,0,0,0,0,0,0,-9.2663,-9.2396,-9.2948,-9.3057,-9.307,-9.3283,-9.3289,-9.3294,-9.3412,-9.341,-9.3408,-9.3407,-9.3713,-9.3726,-9.374,-9.386,0,0,-9.3783,-9.3789,0,0,0,0,0,0,0,0,-9.2647,-9.2684,-9.3037,-9.305,-9.3065,-9.3305,-9.3203,-9.3483,-9.3412,-9.3281,-9.3408,-9.3406,-9.3581,-9.3606,-9.3671,-9.3875,-9.3888,-9.3784,-9.3793,-9.3799,-9.3803,0,0,0,0,0,0,0,-9.2628,-9.267,-9.3081,-9.3041,-9.3059,-9.3079,-9.3117,-9.3257,-9.3435,-9.3292,-9.3302,-9.3341,-9.3588,-9.3657,-9.3679,-9.3893,-9.3784,-9.3796,-9.3805,-9.381,-9.4213,-9.4215,0,0,0,0,0,0,-9.2594,-9.2653,-9.307,-9.3091,-9.2849,-9.3091,-9.3133,-9.3229,-9.3434,-9.3464,-9.3343,-9.3346,-9.3634,-9.3663,-9.3691,-9.3846,-9.3799,-9.3812,-9.382,-9.421,-9.4213,-9.4215,0,0,0,0,0,0,-9.2582,-9.2631,-9.3057,-9.2875,-9.2931,-9.3103,-9.3209,-9.3236,-9.3307,-9.3473,-9.3502,-9.3383,-9.3634,-9.3671,-9.382,-9.3859,-9.3818,-9.3831,-9.4208,-9.4211,-9.4214,-9.4157,0,0,0,0,0,0,-9.2565,-9.2625,-9.2679,-9.2876,-9.2941,-9.3188,-9.3211,-9.3244,-9.3334,-9.3342,-9.3518,-9.3545,-9.3635,-9.3798,-9.3834,-9.3877,-9.3842,-9.4205,-9.4209,-9.4213,-9.4156,-9.4158,-9.416,0,0,0,0,0,-9.2544,-9.2642,-9.2681,-9.2731,-9.3013,-9.3191,-9.3226,-9.3337,-9.3337,-9.3388,-9.3495,-9.354,-9.3849,-9.3813,-9.3853,-9.3901,-9.4203,-9.4208,-9.4213,-9.4155,-9.4158,-9.416,0,0,0,0,0,0,-9.2432,-9.267,-9.2716,-9.2882,-9.3017,-9.3211,-9.3279,-9.3336,-9.3465,-9.3465,-9.3587,-9.3626,-9.3765,-9.3848,-9.3803,-9.4029,-9.4028,-9.4041,-9.397,-9.3974,-9.3975,-9.3951,-9.3853,0,0,0,0,0,-9.243,-9.2565,-9.276,-9.2887,-9.2954,-9.3105,-9.3186,-9.3261,-9.3401,-9.3455,-9.3573,-9.3698,-9.3824,-9.3903,-9.4028,-9.4169,-9.4207,-9.4222,-9.4224,-9.4225,-9.4234,-9.4314,-9.4323,-9.4232,-9.4232,-9.4232,0,0,-9.242,-9.2566,-9.2641,-9.2869,-9.2982,-9.311,-9.3151,-9.3283,-9.3378,-9.3471,-9.3623,-9.3714,-9.3861,-9.4008,-9.4077,-9.4081,-9.4268,-9.4231,-9.4231,-9.424,-9.432,-9.4329,-9.4336,-9.4236,-9.4235,-9.4235,0,0,-9.2469,-9.2596,-9.2718,-9.2833,-9.3009,-9.311,-9.3138,-9.3326,-9.3393,-9.355,-9.3624,-9.3731,-9.3946,-9.4049,-9.4129,-9.4223,-9.4267,-9.4259,-9.4267,-9.4344,-9.4351,-9.4358,-9.439,-9.44,-9.4268,-9.4268,-9.4268,0,-9.2432,-9.264,-9.2769,-9.2903,-9.2998,-9.3102,-9.3221,-9.3323,-9.3524,-9.3584,-9.3588,-9.3863,-9.3969,-9.4141,-9.4165,-9.4227,-9.4259,-9.4238,-9.4342,-9.435,-9.4357,-9.4389,-9.4401,-9.4266,-9.4266,-9.4266,-9.4266,0,-9.2585,-9.2726,-9.2802,-9.3009,-9.3113,-9.3237,-9.3378,-9.3466,-9.3532,-9.363,-9.3785,-9.3918,-9.4073,-9.4119,-9.418,-9.43,-9.4297,-9.4319,-9.432,-9.4362,-9.4394,-9.4407,-9.4263,-9.4263,-9.4264,-9.4265,0,0,-9.2569,-9.2853,-9.2878,-9.2975,-9.3178,-9.3284,-9.3411,-9.3574,-9.3646,-9.3781,-9.3887,-9.4069,-9.4094,-9.4184,-9.4258,-9.4326,-9.4391,-9.434,-9.4345,-9.4344,-9.4529,-9.451,-9.4522,-9.4423,-9.4426,-9.4428,-9.4516,0,-9.2644,-9.289,-9.3012,-9.3199,-9.3329,-9.3431,-9.3541,-9.3672,-9.3767,-9.3884,-9.3984,-9.4112,-9.4135,-9.4191,-9.4263,-9.4368,-9.4429,-9.4363,-9.4515,-9.4519,-9.4474,-9.4539,-9.4519,-9.4595,-9.4529,-9.4531,-9.4533,0,-9.2765,-9.2914,-9.3118,-9.3311,-9.3369,-9.3467,-9.3627,-9.3741,-9.3889,-9.3953,-9.4059,-9.4132,-9.4261,-9.4256,-9.4433,-9.4385,-9.4454,-9.4515,-9.452,-9.4536,-9.4527,-9.4554,-9.4622,-9.4633,-9.4554,-9.4552,-9.4551,0,-9.2733,-9.2983,-9.3139,-9.3217,-9.3445,-9.3511,-9.3607,-9.3756,-9.3847,-9.3982,-9.4042,-9.4186,-9.4264,-9.437,-9.4478,-9.4465,-9.4644,-9.4647,-9.4694,-9.4691,-9.4725,-9.4721,-9.4802,-9.4772,-9.4772,-9.4772,-9.4771,0,-9.2804,-9.2924,-9.3129,-9.3224,-9.336,-9.3495,-9.3623,-9.3724,-9.3857,-9.3967,-9.4059,-9.4157,-9.4296,-9.441,-9.4494,-9.4627,-9.466,-9.471,-9.473,-9.4702,-9.4695,-9.4746,-9.4743,-9.4775,-9.4774,-9.4773,-9.4773,0,-9.279,-9.2933,-9.3109,-9.3315,-9.3368,-9.3459,-9.3629,-9.3721,-9.3823,-9.3961,-9.4,-9.4156,-9.4296,-9.4416,-9.4596,-9.4652,-9.4788,-9.4814,-9.4742,-9.4752,-9.4793,-9.4787,-9.4908,-9.493,-9.4885,-9.4886,-9.4886,0,-9.2826,-9.2923,-9.3142,-9.3229,-9.3327,-9.3463,-9.356,-9.3695,-9.379,-9.397,-9.4037,-9.4187,-9.4313,-9.4529,-9.4652,-9.479,-9.4818,-9.4852,-9.4839,-9.4807,-9.4817,-9.481,-9.4819,-9.485,-9.485,-9.485,-9.485,0,-9.2873,-9.2941,-9.3083,-9.3251,-9.3367,-9.3501,-9.3637,-9.37,-9.3858,-9.3958,-9.411,-9.4208,-9.4399,-9.4543,-9.4696,-9.4783,-9.484,-9.4855,-9.4873,-9.4842,-9.4797,-9.4821,-9.4741,-9.485,-9.485,-9.485,-9.485,-9.485,-9.2885,-9.2977,-9.3149,-9.3303,-9.3423,-9.3549,-9.3647,-9.3766,-9.3898,-9.4071,-9.414,-9.4292,-9.4436,-9.465,-9.4738,-9.4853,-9.4861,-9.4887,-9.4893,-9.4897,-9.4893,-9.4781,-9.4881,-9.4881,-9.4881,-9.4881,-9.4881,0,-9.2937,-9.3055,-9.3197,-9.3391,-9.3511,-9.3568,-9.3722,-9.3815,-9.3953,-9.4089,-9.4215,-9.4386,-9.4527,-9.4664,-9.4811,-9.4876,-9.4906,-9.4909,-9.4904,-9.4923,-9.4877,-9.4847,-9.4883,-9.4883,-9.4883,-9.4883,-9.4883,-9.4883,-9.2979,-9.3139,-9.3226,-9.3443,-9.3557,-9.3717,-9.38,-9.3914,-9.4024,-9.4216,-9.4338,-9.4431,-9.4565,-9.4723,-9.4853,-9.4889,-9.4936,-9.4933,-9.4975,-9.4928,-9.4926,-9.4925,-9.4897,-9.4943,-9.4943,-9.5012,-9.5012,-9.5013]},{"header":{"parameterUnit":"m.s-1","parameterCategory":1,"la1":30.2991,"la2":30.254,"lo1":-89.0895,"lo2":-89.0444,"dy":0.0017,"dx":0.0017,"nx":28,"ny":28,"refTime":"2024-02-04T03:00:00:Z","depth":0,"parameterNumber":3,"parameterNumberName":"V-component_of_WINDS"},"data":[0,0,0,0,0,0,0,0,0,0,0,0,0,0,0,0,0,0,0,0,0,0,0,0,0,0,0,0,0,0,0,0,0,0,0,0,0,0,0,0,0,0,0,0,0,0,0,0,0,0,0,0,0,0,0,0,0,0,4.9868,4.9867,0,4.9797,4.9796,4.9796,4.9739,4.9739,4.9738,4.9738,4.9658,4.9656,4.9655,0,0,0,0,0,0,0,0,0,0,0,0,0,4.995,4.9949,4.9868,4.9867,4.9867,4.9797,4.9796,4.9795,4.9739,4.9739,4.9738,4.9737,4.9659,4.9657,4.9655,0,0,0,0,0,0,0,0,0,0,0,0,0,4.99,4.9949,4.9868,4.983,4.9826,4.9798,4.9796,4.9795,4.9739,4.9739,4.9738,4.9737,4.9659,4.9657,4.9654,4.9656,0,0,4.9647,4.9646,0,0,0,0,0,0,0,0,4.9903,4.9897,4.9837,4.9833,4.9828,4.9776,4.9796,4.9748,4.974,4.9772,4.9738,4.9737,4.9698,4.9692,4.968,4.9652,4.9649,4.9647,4.9645,4.9644,4.9644,0,0,0,0,0,0,0,4.9907,4.99,4.984,4.9836,4.9831,4.9815,4.9807,4.9787,4.974,4.9769,4.9765,4.9758,4.9695,4.9683,4.9678,4.9647,4.9647,4.9645,4.9643,4.9642,4.9618,4.9619,0,0,0,0,0,0,4.9917,4.9903,4.9842,4.9838,4.9865,4.9814,4.9805,4.9794,4.974,4.9731,4.9759,4.9755,4.9687,4.9681,4.9675,4.9674,4.9644,4.9642,4.9641,4.9617,4.9618,4.9619,0,0,0,0,0,0,4.9919,4.9912,4.9845,4.987,4.986,4.9814,4.9801,4.9793,4.978,4.9732,4.9723,4.9755,4.9686,4.9678,4.9662,4.967,4.9641,4.9639,4.9616,4.9618,4.9619,4.9672,0,0,0,0,0,0,4.9922,4.9913,4.9914,4.987,4.9859,4.9835,4.9802,4.9792,4.9777,4.9772,4.9726,4.9718,4.9685,4.9666,4.9659,4.9666,4.9637,4.9615,4.9617,4.9618,4.9669,4.9675,4.9679,0,0,0,0,0,4.9925,4.993,4.9915,4.9908,4.986,4.9835,4.9829,4.9793,4.9778,4.9778,4.9748,4.9719,4.9671,4.9665,4.9657,4.9663,4.9615,4.9616,4.9618,4.9667,4.9673,4.9679,0,0,0,0,0,0,4.9974,4.9924,4.9906,4.9897,4.9872,4.9826,4.9825,4.9801,4.9777,4.9773,4.9728,4.9718,4.9706,4.9683,4.9677,4.9663,4.9639,4.9639,4.9678,4.9684,4.969,4.9695,4.9635,0,0,0,0,0,4.9984,4.9971,4.9927,4.9923,4.9912,4.9871,4.9859,4.9834,4.9804,4.9792,4.976,4.9731,4.9709,4.9695,4.9672,4.9666,4.9655,4.9666,4.9672,4.9676,4.9677,4.9672,4.9677,4.9625,4.9625,4.9625,0,0,5.0004,4.9975,4.9969,4.9933,4.991,4.9895,4.9862,4.9847,4.9836,4.9789,4.9773,4.9749,4.9712,4.9702,4.9695,4.9681,4.9689,4.9678,4.9682,4.968,4.9675,4.968,4.9684,4.9626,4.9626,4.9626,0,0,5.0034,5.0011,5.0006,4.9985,4.9952,4.9925,4.9924,4.9883,4.9865,4.9849,4.9814,4.9799,4.9762,4.9738,4.9721,4.9745,4.9718,4.9739,4.9766,4.9762,4.9766,4.9769,4.9778,4.9782,4.974,4.974,4.974,0,5.0062,5.0042,5.0006,4.9995,4.9981,4.9941,4.9935,4.9915,4.9875,4.9865,4.9852,4.9806,4.9779,4.9762,4.9769,4.9756,4.9753,4.9743,4.9769,4.9772,4.9774,4.9782,4.9786,4.9742,4.9742,4.9742,4.9742,0,5.0079,5.0065,5.0065,5.0031,5.0016,5.0008,4.997,4.9959,4.9936,4.991,4.9894,4.9861,4.9831,4.9825,4.9801,4.9805,4.9799,4.9778,4.9753,4.9783,4.979,4.9792,4.9746,4.9745,4.9745,4.9744,0,0,5.0136,5.0085,5.0085,5.007,5.0031,5.0019,5.0009,4.9983,4.9974,4.9948,4.9938,4.991,4.9891,4.9872,4.9845,4.9842,4.9864,4.9821,4.9819,4.983,4.9867,4.9884,4.9888,4.9846,4.9846,4.9847,4.987,0,5.016,5.0142,5.0111,5.0103,5.009,5.0052,5.0044,5.0018,4.9995,4.9979,4.9951,4.9932,4.9908,4.9897,4.9892,4.9862,4.987,4.986,4.9835,4.9835,4.9846,4.9891,4.9908,4.9932,4.9873,4.9873,4.9873,0,5.0185,5.0165,5.0156,5.012,5.0113,5.0107,5.0081,5.0067,5.0037,5.002,5.0001,4.9972,4.9959,4.9937,4.9917,4.9911,4.9899,4.9883,4.9883,4.9879,4.9856,4.9889,4.9938,4.9943,4.9877,4.9877,4.9877,0,5.0229,5.0199,5.019,5.0178,5.0136,5.0132,5.0114,5.0084,5.007,5.0047,5.0038,5.0013,4.9999,4.998,4.9945,4.9932,4.993,4.9905,4.9914,4.9915,4.9915,4.9915,4.9964,4.9907,4.9907,4.9907,4.9907,0,5.0259,5.0255,5.021,5.0204,5.0199,5.0163,5.0158,5.0136,5.011,5.0099,5.0064,5.0054,5.0009,4.9993,4.9966,4.9954,4.9948,4.9933,4.9926,4.9936,4.9938,4.9928,4.9925,4.9908,4.9908,4.9908,4.9908,0,5.0307,5.0276,5.0264,5.0226,5.0217,5.0215,5.0181,5.0174,5.0149,5.0136,5.013,5.009,5.007,5.0034,5.0003,4.9984,4.9979,4.9966,4.999,4.9985,4.9998,4.9997,5.0041,5.0045,4.9986,4.9986,4.9987,0,5.0328,5.0325,5.0288,5.0279,5.0263,5.0249,5.0237,5.0201,5.0189,5.0156,5.0153,5.0131,5.0111,5.0081,5.0048,5.0024,5.0011,5.0028,5.0007,5.0018,5.0012,5.0013,5.0013,5.0033,5.0033,5.0034,5.0035,0,5.037,5.0356,5.034,5.0319,5.0306,5.0287,5.0267,5.0261,5.022,5.0208,5.0189,5.0174,5.0144,5.0123,5.0095,5.0074,5.0048,5.0042,5.0043,5.0054,5.0068,5.0062,5.0003,5.0041,5.004,5.004,5.0039,5.0039,5.0405,5.0401,5.0375,5.0359,5.0341,5.0323,5.0315,5.0291,5.0275,5.0249,5.0228,5.0211,5.0182,5.0142,5.0124,5.0109,5.0096,5.0097,5.0098,5.0099,5.0104,5.0071,5.0103,5.0103,5.0103,5.0102,5.0102,0,5.0446,5.0428,5.0414,5.0388,5.0375,5.0354,5.0331,5.0321,5.0307,5.0283,5.0266,5.0244,5.0224,5.019,5.0167,5.0161,5.0149,5.0156,5.0156,5.0152,5.0115,5.0117,5.0167,5.0167,5.0167,5.0167,5.0167,5.0167,5.0466,5.0459,5.0442,5.0425,5.0406,5.0391,5.0379,5.0362,5.0344,5.0322,5.0306,5.0285,5.0258,5.0232,5.0212,5.0203,5.0196,5.0208,5.0195,5.0161,5.0155,5.0149,5.015,5.0206,5.0206,5.0233,5.0233,5.0233]}]]